{"data":{"norad_id":62525,"intl_designator":"2025-004Q","name":"STARLINK-32777","alt_names":[],"object_type":"PAYLOAD","status":"ACTIVE","operator":null,"country":"US","launch_date":"2025-01-08","launch_site_code":"AFETR","launch_vehicle":null,"mission":null,"orbit_class":"UNKNOWN","rcs_meters":null,"size_class":null,"mass_kg":null,"dimensions":null,"purposes":["comms"],"wikipedia_slug":null,"has_3d_model":false,"image_url":null,"decayed_at":null,"tle_current":{"epoch":"2026-09-20T12:50:36.502944Z","epoch_age_seconds":171492,"freshness":"FRESH","line1":"1 62525U 25004Q   26263.53514471  .00015056  00000+0  55551-3 0  9990","line2":"2 62525  43.0010 199.8368 0000885 278.8541  81.2210 15.27581206 96253","mean_motion":15.27581206,"eccentricity":8.85e-5,"inclination_deg":43.001,"raan_deg":199.8368,"arg_perigee_deg":278.8541,"mean_anomaly_deg":81.221,"bstar":0.00055551,"rev_number":9625,"period_min":94.266674291619,"perigee_km":482.43827019426,"apogee_km":483.65269949408,"semimajor_km":6861.1824848442,"source":"CELESTRAK","updated_at":"2026-09-22T09:00:49.624274Z"}}}